Location: Eekst
(53.0191°N, 6.7366°E)
Time: 11:15:36
(UTC+00:00)

Ariane Rocket - Pass Details

Date: 15 May 2026
Orbit: 755 x 763 km, 98.4° (Epoch: 5 June)

Event Time Altitude Azimuth Distance (km) Brightness Sun altitude
Exits shadow 20:59:02 12° 166° (SSE) 2,120 4.7 -11.0°
Maximum altitude 21:03:40 84° 255° (WSW) 774 3.0 -11.4°
Drops below altitude 10° 21:08:46 10° 344° (NNW) 2,310 6.8 -11.8°
Sets 21:11:05 0° 345° (NNW) 3,242 7.8 -12.0°
